Location: ????
(55.5675°N, 37.6272°E)
Time: 21:38:04
(UTC+00:00)

CZ-4 R/B - Pass Details

Date: 14 April 2026
Orbit: 490 x 537 km, 97.5° (Epoch: 11 May)

Event Time Altitude Azimuth Distance (km) Brightness Sun altitude
Rises 18:15:37 0° 202° (SSW) 2,644 4.6 -13.4°
Reaches altitude 10° 18:18:10 10° 220° (SW) 1,752 3.9 -13.7°
Maximum altitude 18:20:59 20° 268° (W) 1,241 3.7 -14.0°
Drops below altitude 10° 18:23:49 10° 317° (NW) 1,742 5.3 -14.2°
Sets 18:26:20 0° 335° (NNW) 2,624 6.1 -14.5°
